Location: ??????
(38.0677°N, 22.9870°E)
Time: 11:08:00
(UTC+00:00)

CZ-4 R/B - Pass Details

Date: 23 May 2024
Orbit: 679 x 748 km, 98.6° (Epoch: 23 June)

Event Time Altitude Azimuth Distance (km) Brightness Sun altitude
Rises 02:04:41 0° 8° (N) 3,063 7.9 -11.9°
Reaches altitude 10° 02:06:56 10° 5° (N) 2,150 7.0 -11.5°
Maximum altitude 02:11:33 58° 287° (WNW) 815 4.0 -10.8°
Enters shadow 02:16:11 10° 209° (SSW) 2,161 5.8 -10.1°
